Tacoma Narrows, WA

2:09 AM PST on February 25, 2018 (GMT -0800)
Tacoma Narrows

Weather History for KTIW - October, 2012

Change the Weather History Date:

Saturday, October 6, 2012

  Actual Average Record
Temperature  
Mean Temperature 60 °F -  
Max Temperature 72 °F 60 °F 75 °F (2014)
Min Temperature 48 °F 47 °F 46 °F (2000)
Degree Days  
Heating Degree Days 5    
Growing Degree Days 10 (Base 50)    
Moisture  
Dew Point 33 °F    
Average Humidity 39    
Maximum Humidity 74    
Minimum Humidity 15    
Precipitation  
Precipitation 0.00 in - - ()
Sea Level Pressure  
Sea Level Pressure 30.18 in    
Wind  
Wind Speed 9 mph (North)    
Max Wind Speed 14 mph    
Max Gust Speed 17 mph    
Visibility 9 miles    
Events      
Averages and records for this station are not official NWS values.
T = Trace of Precipitation, MM = Missing Value Source: NWS Daily Summary

Daily Weather History Graph

Daily Weather History Graph

Search for Another Location

Airport or City:

Trip Planner

Search our weather history database for the weather conditions in past years. The results will help you decide how hot, cold, wet, or windy it might be!

Date:

Astronomy

Oct. 06, 2012 Rise Set
Actual Time 7:16 AM PDT 6:38 PM PDT
Civil Twilight 6:46 AM PDT 7:09 PM PDT
Nautical Twilight 6:10 AM PDT 7:44 PM PDT
Astronomical Twilight 5:35 AM PDT 8:20 PM PDT
Moon 10:41 PM PDT (10/6) 1:33 PM PDT (10/6)
Length of Visible Light 12h 22m
Length of Day
11h 21m
Waning Gibbous, 64% of the Moon is Illuminated
Oct 6
Waning Gibbous
Oct 8
Last Quarter
Oct 15
New
Oct 21
First Quarter
Oct 29
Full

Hourly Weather History & Observations

Time (PDT) Temp. Dew Point Humidity Pressure Visibility Wind Dir Wind Speed Gust Speed Precip Events Conditions
12:53 AM 55.9 °F 35.1 °F 45% 30.22 in 10.0 mi North 9.2 mph - N/A   Clear
1:53 AM 55.0 °F 36.0 °F 49% 30.23 in 10.0 mi North 10.4 mph - N/A   Clear
2:53 AM 54.0 °F 36.0 °F 51% 30.22 in 10.0 mi North 9.2 mph - N/A   Clear
3:53 AM 53.1 °F 36.0 °F 52% 30.21 in 10.0 mi North 8.1 mph - N/A   Clear
4:53 AM 53.1 °F 36.0 °F 52% 30.21 in 10.0 mi North 6.9 mph - N/A   Clear
5:53 AM 52.0 °F 37.0 °F 57% 30.21 in 10.0 mi North 8.1 mph - N/A   Clear
6:53 AM 51.1 °F 37.0 °F 59% 30.22 in 10.0 mi NNE 5.8 mph - N/A   Clear
7:53 AM 48.0 °F 39.9 °F 74% 30.23 in 9.0 mi Calm Calm - N/A   Clear
8:53 AM 53.1 °F 36.0 °F 52% 30.23 in 9.0 mi North 5.8 mph - N/A   Clear
9:53 AM 57.9 °F 34.0 °F 41% 30.23 in 9.0 mi North 5.8 mph - N/A   Clear
10:53 AM 62.1 °F 32.0 °F 32% 30.22 in 8.0 mi North 12.7 mph - N/A   Clear
11:53 AM 64.9 °F 30.9 °F 28% 30.22 in 9.0 mi North 11.5 mph 17.3 mph N/A   Clear
12:53 PM 66.0 °F 30.0 °F 26% 30.20 in 8.0 mi North 10.4 mph - N/A   Clear
1:53 PM 69.1 °F 28.9 °F 22% 30.18 in 8.0 mi North 9.2 mph - N/A   Clear
2:53 PM 71.1 °F 26.1 °F 19% 30.16 in 9.0 mi North 10.4 mph - N/A   Clear
3:53 PM 72.0 °F 21.9 °F 15% 30.14 in 8.0 mi North 11.5 mph - N/A   Clear
4:53 PM 71.1 °F 27.0 °F 19% 30.12 in 9.0 mi North 11.5 mph - N/A   Clear
5:53 PM 68.0 °F 28.0 °F 22% 30.11 in 10.0 mi North 13.8 mph - N/A   Clear
6:53 PM 64.0 °F 27.0 °F 25% 30.11 in 9.0 mi North 12.7 mph - N/A   Clear
7:53 PM 62.1 °F 33.1 °F 34% 30.12 in 10.0 mi North 13.8 mph - N/A   Clear
8:53 PM 62.6 °F 32.0 °F 32% 30.11 in 10.0 mi North 9.2 mph - N/A   Clear
9:53 PM 60.1 °F 34.0 °F 38% 30.11 in 10.0 mi North 11.5 mph - N/A   Clear
10:53 PM 59.0 °F 35.1 °F 41% 30.11 in 10.0 mi NNE 6.9 mph - N/A   Clear
11:53 PM 57.9 °F 36.0 °F 44% 30.11 in 10.0 mi NNE 5.8 mph - N/A   Clear